Location: Newark
(51.2667°N, 3.9167°E)
Time: 11:27:45
(UTC+00:00)

ISS - Visible Passes

Search period start: 21 March 2019 00:00
Search period end: 31 March 2019 00:00
Orbit: 406 x 411 km, 51.6° (Epoch: 21 March)

Date Brightness Start Highest point End Pass type
(mag) Time Alt. Az. Time Alt. Az. Time Alt. Az.
21 Mar -1.5 19:28:16 10° S 19:28:52 12° S 19:28:52 12° S visible
22 Mar -1.8 20:12:16 10° SW 20:13:29 20° SW 20:13:29 20° SW visible
23 Mar -2.8 19:21:32 10° SSW 19:24:25 28° SSE 19:25:05 26° SE visible
23 Mar -0.9 20:57:25 10° WSW 20:57:52 13° WSW 20:57:52 13° WSW visible
24 Mar -3.6 20:06:22 10° WSW 20:09:16 59° SSW 20:09:16 59° SSW visible
25 Mar -3.5 19:15:23 10° SW 19:18:36 48° SSE 19:20:31 21° E visible
25 Mar -1.7 20:51:46 10° W 20:53:16 25° W 20:53:16 25° W visible
26 Mar -3.9 20:00:37 10° W 20:03:56 89° SSE 20:04:24 64° E visible
27 Mar -3.8 19:09:30 10° WSW 19:12:48 74° SSE 19:15:26 15° E visible
27 Mar -2.3 20:46:04 10° W 20:48:10 36° W 20:48:10 36° W visible
28 Mar -3.8 19:54:54 10° W 19:58:13 82° N 19:59:07 45° E visible
28 Mar -0.7 21:31:29 10° W 21:31:50 12° W 21:31:50 12° W visible
29 Mar -3.8 19:03:43 10° W 19:07:02 86° N 19:10:01 12° E visible
29 Mar -2.8 20:40:19 10° W 20:42:45 45° W 20:42:45 45° W visible
30 Mar -3.9 19:49:08 10° W 19:52:27 87° N 19:53:37 38° E visible
30 Mar -0.9 21:25:46 10° W 21:26:20 14° W 21:26:20 14° W visible
